www.pogodaiklimat.ru

Погода и климат >> Архив погоды >> Казахстан >> Тайпак


ПОГОДА в Тайпаке

АРХИВ ПОГОДЫ в Тайпаке

Время (UTC), дата Ветер
(напр.,м/с)
 
Видим.   Явления Облачность Т
(С)
Тd
(С)
f
(%)
Тe
(С)
Тes
(С)
Комфортность P
(гПа)
Po
(гПа)
Тmin
(С)
Tmax
(С)
R
(мм)
R24
(мм)
S
(см)
00 14.06 Ю 3 н/о 6/0
[Ci fib]
+15.6 0.0 34 +15 +15 1012.0 1011.8
03 14.06 З 2 10 км 8/8 600 м
[Cb calv]
+19.8 +3.8 35 +21 +21 комфорт 1012.5 1012.3
06 14.06 З 3 10 км 8/0
[Ac trans]
+28.2 +6.3 25 +27 +33 жарко 1012.7 1012.5 +15.0
09 14.06 ЮЗ 2 10 км 8/8 1000 м
[Cu med, cong]
+30.3 +4.9 20 +28 +32 жарко 1012.4 1012.2
12 14.06 ЮЗ 5 10 км 8/8 1000 м
[Cu med, cong]
+31.1 +3.4 17 +29 +30 жарко 1012.0 1011.8
15 14.06 ЮЗ 1 10 км 4/0
[Ci fib]
+30.1 -1.6 13 +27 +28 жарко 1011.7 1011.5 +31.8
18 14.06 Ю 1 н/о 3/0
[Ci fib]
+21.8 -1.0 22 +21 +21 комфорт 1012.2 1012.0 +31.8
21 14.06 Ю 2 н/о ясно +19.3 +0.2 28 +20 +20 1012.3 1012.1
00 15.06 ЮЗ 2 10 км ясно +17.5 +4.9 43 +18 +18 1011.9 1011.7
03 15.06 ЮЗ 1 10 км 3/0
[Ac trans]
+22.4 +7.6 39 +23 +26 комфорт 1012.4 1012.2
06 15.06 В 2 10 км 3/0
[Ac trans]
+29.3 +7.6 26 +16.8
09 15.06 Ю 3 10 км 4/0
[Ac trans]
+31.2 +5.9 20
12 15.06 Ю 2 10 км 4/4 1000 м
[Cu med, cong]
+33.8 +1.6 13 +31 +37 жарко 1010.3 1010.1
15 15.06 ЮЗ 1 10 км 4/0
[Ac trans]
+32.6 +0.6 13 +29 +30 жарко 1009.9 1009.7 +34.4
18 15.06 С 3 н/о 3/0
[Ac trans]
+24.7 +6.3 31 +25 +25 комфорт 1009.9 1009.7 +34.4
21 15.06 СВ 3 н/о ясно +19.7 +9.7 52 +21 +21 комфорт 1010.6 1010.4
00 16.06 СВ 4 10 км ясно +17.0 +8.8 58 +17 +17 1010.3 1010.1
03 16.06 СВ 4 10 км ясно +18.9 +9.0 53 +19 +22 1010.8 1010.6
06 16.06 СВ 5 10 км 3/0
[Ci fib]
+24.6 +9.3 38 +25 +32 комфорт 1011.2 1011.0 +15.6
09 16.06 СВ 6 10 км 6/0
[Ac trans]
+25.5 +8.4 34 +26 +30 жарко 1011.4 1011.2
12 16.06 СВ 5 10 км 9/0
[Ac trans]
+23.4 +4.6 29 +23 +26 комфорт 1011.6 1011.4
15 16.06 СВ 3 10 км 6/0
[Ac trans]
+25.1 +5.1 28 +25 +25 комфорт 1010.6 1010.4 +27.4
18 16.06 СВ 3 н/о ясно +18.3 +0.5 30 +19 +19 1012.5 1012.3 +27.4
21 16.06 СВ 3 н/о ясно +14.5 +0.9 40 +14 +14 1013.0 1012.8
00 17.06 СВ 2 10 км ясно +10.1 +0.1 50 +9 +9 1013.5 1013.3
03 17.06 В 1 10 км ясно +15.3 +2.8 43 +16 +20 1013.4 1013.2
06 17.06 В 2 10 км ясно +22.2 +3.1 29 +22 +35 комфорт 1013.2 1013.0 +9.5
09 17.06 В 3 10 км ясно +24.7 +3.4 25 +24 +39 комфорт 1012.1 1011.9
12 17.06 С 6 10 км ясно +26.1 +2.7 22 +25 +29 комфорт 1010.9 1010.7
15 17.06 С 3 10 км ясно +25.2 +3.0 24 +24 +25 комфорт 1010.4 1010.2 +26.6
18 17.06 С 2 н/о ясно +20.2 +3.8 34 +21 +21 комфорт 1011.3 1011.1 +26.6
21 17.06 СВ 2 н/о ясно +16.3 +4.6 46 +17 +17 1011.1 1010.9
00 18.06 СВ 2 н/о ясно +13.8 +5.0 55 +13 +13 1010.7 1010.5
03 18.06 СВ 1 10 км ясно +18.9 +5.0 40 +20 +24 1011.1 1010.9
06 18.06 СВ 2 10 км ясно +25.2 +2.7 23 +24 +37 комфорт 1010.3 1010.1 +12.8
09 18.06 СВ 3 10 км 1/1 1000 м
[Cu med, cong]
+28.2 +3.4 20 +26 +40 жарко 1009.6 1009.4
12 18.06 С 2 10 км 3/3 1000 м
[Cu med, cong]
+28.9 +4.9 22 +27 +34 жарко 1008.8 1008.6
15 18.06 С 3 10 км ясно +27.1 +5.0 24 +26 +27 жарко 1008.6 1008.4 +29.9
18 18.06 С 1 н/о ясно +20.5 +6.1 39 +22 +22 комфорт 1010.2 1010.0 +29.9
21 18.06 штиль 0 н/о ясно +16.6 +5.8 49 +17 +17 1010.1 1009.9
00 19.06 штиль 0 10 км ясно +14.1 +5.9 58 +14 +14 1010.5 1010.3
03 19.06 С 1 10 км ясно +19.5 +7.8 47 +21 +25 комфорт 1011.4 1011.2
06 19.06 В 3 10 км ясно +25.6 +7.1 31 +26 +37 жарко 1012.0 1011.8 +13.5
09 19.06 СЗ 4 10 км 6/6 1000 м
[Cu med, cong]
+28.9 +6.4 24 +28 +33 жарко 1011.2 1011.0
12 19.06 СЗ 2 10 км 8/8 1000 м
[Cu med, cong]
+30.1 +6.2 22 +29 +31 жарко 1010.4 1010.2
15 19.06 штиль 0 10 км 6/0
[Ac trans]
+30.0 +6.0 22 +29 +30 жарко 1009.9 1009.7 +31.3
18 19.06 СЗ 1 н/о 3/0
[Ac trans]
+23.0 +4.8 31 +23 +23 комфорт 1010.7 1010.5 +31.3
21 19.06 СЗ 1 н/о ясно +18.8 +4.3 38 +20 +20 1010.8 1010.6
00 20.06 З 1 10 км ясно +16.6 +4.7 45 +18 +18 1010.6 1010.4
03 20.06 З 1 10 км 3/0
[Ac trans]
+24.5 +5.8 30 +24 +27 комфорт 1011.0 1010.8
06 20.06 ЮЗ 5 10 км 3/0
[Ac trans]
+32.0 +4.0 17 +30 +35 жарко 1010.4 1010.2 +16.6
09 20.06 З 6 10 км 4/4 1000 м
[Cu med, cong]
+34.2 +4.2 15 +31 +36 жарко 1009.3 1009.1
12 20.06 З 4 10 км 6/6 1000 м
[Cu med, cong]
+34.4 +5.0 16 +32 +35 жарко 1008.2 1008.0
15 20.06 З 3 10 км 6/6 1000 м
[Cu med, cong]
+33.1 +5.0 17 +31 +31 жарко 1007.5 1007.3 +35.1
18 20.06 З 1 н/о 3/0
[Ac trans]
+25.9 +5.3 27 +25 +25 комфорт 1008.1 1007.9 +35.1
21 20.06 З 1 н/о ясно +23.0 +5.5 32 +23 +23 комфорт 1008.2 1008.0

 

Местоположение метеостанции Тайпак (Западно-Казахстанская область, Казахстан): широта 49.05 долгота 51.87 высота над уровнем моря 2 м.

В архиве по умолчанию представлена погода в Тайпаке за последнюю неделю. Архивные данные за месяц целиком и за предыдущие месяцы, начиная с января 2011 года, Вы можете получить, выбрав интересующий диапазон дат из раскрывающегося списка и нажав кнопку "Ввод!".


*Определитесь, кто Вы:
робот инопланетянин человек

Внимание! Время в таблицах - всемирное. Для получения местного времени необходимо прибавить поправку, которая в Тайпаке равна 5 ч.

Смотрите также архив погоды в соседних городах и на ближайших метеорологических станциях:

Погода в Индерборском (Атырауская область, Казахстан) (62 км)
Погода в Карабау (Атырауская область, Казахстан) (102 км)
Погода в Жангала (Западно-Казахстанская область, Казахстан) (116 км)
Погода в Каратобе (Западно-Казахстанская область, Казахстан) (131 км)
Погода в Чапаево (Западно-Казахстанская область, Казахстан) (137 км)
Погода в Джамбейты (Западно-Казахстанская область, Казахстан) (143 км)
Погода в Махамбете (Атырауская область, Казахстан) (155 км)
Погода в Жалпактале (Западно-Казахстанская область, Казахстан) (186 км)
Погода в Макате (Атырауская область, Казахстан) (189 км)
Погода в Анкаты (Западно-Казахстанская область, Казахстан) (198 км)

Пояснения к столбцам:

Ветер - указаны скорость ветра в м/с - средняя за 10 мин, порывы в срок и между сроками (в фигурных скобках) и направление, откуда дует ветер: С - северный, СВ - северо-восточный, В - восточный, ЮВ - юго-восточный, Ю - южный, ЮЗ - юго-западный, З - западный, СЗ - северо-западный.
Видимость - горизонтальная дальность видимости в метрах или километрах. При видимости от 1 до 10 км при отсутствии осадков обычно наблюдается дымка, при ухудшении видимости до 1 км и менее - туман. В сухую погоду видимость может ухудшаться дымом, пылью или мглою.
Явления - указаны атмосферные явления, наблюдавшиеся в срок или в последний час перед сроком; фигурными скобками обозначены явления, наблюдавшиеся между сроками (за 1-3 часа до срока); квадратными скобками обозначены град или гололедные отложения с указанием их диаметра в мм.
Облачность - указаны через наклонную черту общая и нижняя облачность в баллах и высота нижней границы облаков в метрах; квадратными скобками обозначены формы облаков: Ci - перистые, Cs - перисто-слоистые, Cc - перисто-кучевые, Ac - высококучевые, As - высокослоистые, Sc - слоисто-кучевые, Ns - слоисто-дождевые, Cu - кучевые, Cb - кучево-дождевые. Подробнее классификацию облаков см. в Атласе облаков (PDF).
T - Температура воздуха - температура, измеренная на высоте 2 м над землей.
Td - Температура точки росы - температура, при понижении до которой содержащийся в воздухе водяной пар достигнет насыщения.
f - Относительная влажность воздуха - влажноcть воздуха, измеренная на высоте 2 м над землей.
Te - Эффективная температура - температура, которую ощущает одетый по сезону человек в тени. Характеристика душности погоды. При расчете учитывается влияние влажности воздуха и скорости ветра на теплоощущения человека.
Tes - Эффективная температура на солнце - температура, которую ощущает человек, с поправкой на солнечный нагрев. Характеристика знойности погоды. Зависит от высоты солнца над горизонтом, облачности и скорости ветра. Ночью, в пасмурную погоду, а также при ветре 12 м/с и более поправка равна нулю.
P - Атмосферное давление - приведенное к уровню моря атмосферное давление.
Po - Атмосферное давление - измеренное на уровне метеостанции атмосферное давление.
Tmin - Минимальная температура - минимум температуры воздуха на высоте 2 м над землей.
Tmax - Максимальная температура - максимум температуры воздуха на высоте 2 м над землей.
R - Количество осадков - Количество выпавших осадков за период времени, мм. При наведении курсора мыши на число - период времени, за который выпало указанное количество осадков.
R24 - Количество осадков - Количество выпавших осадков за 24 часа, мм.
S - Снежный покров - Высота снежного покрова, см. При наведении курсора мыши на число - состояние снежного покрова и степень покрытия местности в баллах.